When you browse on this site, cookies collect data to enhance your experience and personalize the content and advertising you see.
Visit our Privacy Policy to learn more. By continuing to use the site, you agree to this use of cookies and data.
  • In United Kingdom
  • List of Countries
  • For 7 days
  • Water Temperature
  • Satellite Maps
  • Weather Map
  • Weather Widgets
  • user-avatar
    Login

    Hourly Weather Omagh

    Today, 26 April, Friday

    Time Temperature Precipitation Wind Pressure Humidity
    00:00 +6°C° 0 mm 1 mps 740 mmHg 99%
    01:00 +6°C° 0 mm 1 mps 740 mmHg 99%
    02:00 +6°C° 0 mm 1 mps 740 mmHg 99%
    03:00 +6°C° 0 mm 1 mps 740 mmHg 99%
    04:00 +6°C° 0 mm 2 mps 740 mmHg 99%
    05:00 +6°C° 0 mm 2 mps 741 mmHg 98%
    06:00 +6°C° 0 mm 2 mps 741 mmHg 98%
    07:00 +7°C° 0.1 mm 2 mps 741 mmHg 97%
    08:00 +8°C° 0.1 mm 2 mps 741 mmHg 96%
    09:00 +8°C° 0.1 mm 2 mps 741 mmHg 95%
    10:00 +8°C° 0.7 mm 3 mps 742 mmHg 95%
    11:00 +8°C° 0.7 mm 3 mps 742 mmHg 95%
    12:00 +7°C° 0.7 mm 4 mps 743 mmHg 95%
    13:00 +8°C° 0.1 mm 4 mps 742 mmHg 88%
    14:00 +8°C° 0.1 mm 4 mps 742 mmHg 82%
    15:00 +10°C° 0.1 mm 4 mps 742 mmHg 75%
    16:00 +8°C° 0.7 mm 4 mps 741 mmHg 82%
    17:00 +7°C° 0.7 mm 4 mps 739 mmHg 89%
    18:00 +6°C° 0.7 mm 4 mps 738 mmHg 95%
    19:00 +7°C° 0.4 mm 3 mps 738 mmHg 96%
    20:00 +7°C° 0.4 mm 2 mps 738 mmHg 96%
    21:00 +7°C° 0.4 mm 1 mps 737 mmHg 96%
    22:00 +6°C° 0.5 mm 2 mps 738 mmHg 96%
    23:00 +5°C° 0.5 mm 4 mps 739 mmHg 96%

    Tomorrow, 27 April, Saturday

    Time Temperature Precipitation Wind Pressure Humidity
    00:00 +5°C° 0.5 mm 5 mps 740 mmHg 96%
    01:00 +4°C° 2 mm 6 mps 741 mmHg 94%
    02:00 +2°C° 2 mm 8 mps 743 mmHg 92%
    03:00 +2°C° 2 mm 9 mps 744 mmHg 90%
    04:00 +2°C° 0.2 mm 8 mps 745 mmHg 86%
    05:00 +2°C° 0.2 mm 8 mps 747 mmHg 83%
    06:00 +3°C° 0.2 mm 7 mps 748 mmHg 79%
    07:00 +4°C° 0 mm 7 mps 749 mmHg 73%
    08:00 +5°C° 0 mm 8 mps 750 mmHg 68%
    09:00 +6°C° 0 mm 8 mps 751 mmHg 62%
    10:00 +6°C° 0.1 mm 8 mps 751 mmHg 61%
    11:00 +7°C° 0.1 mm 8 mps 752 mmHg 59%
    12:00 +7°C° 0.1 mm 8 mps 752 mmHg 58%
    13:00 +7°C° 0.2 mm 8 mps 753 mmHg 58%
    14:00 +8°C° 0.2 mm 7 mps 754 mmHg 58%
    15:00 +8°C° 0.2 mm 7 mps 754 mmHg 58%
    16:00 +8°C° 0.1 mm 6 mps 755 mmHg 60%
    17:00 +7°C° 0.1 mm 6 mps 755 mmHg 62%
    18:00 +7°C° 0.1 mm 5 mps 756 mmHg 63%
    19:00 +6°C° 0 mm 4 mps 756 mmHg 69%
    20:00 +4°C° 0 mm 3 mps 757 mmHg 75%
    21:00 +4°C° 0 mm 2 mps 757 mmHg 81%
    22:00 +4°C° 0 mm 2 mps 758 mmHg 84%
    23:00 +4°C° 0 mm 1 mps 758 mmHg 86%

    Day after tomorrow, 28 April, Sunday

    Time Temperature Precipitation Wind Pressure Humidity
    00:00 +4°C° 0 mm 1 mps 758 mmHg 89%
    01:00 +5°C° 0 mm 1 mps 758 mmHg 88%
    02:00 +5°C° 0 mm 1 mps 758 mmHg 87%
    03:00 +6°C° 0 mm 1 mps 758 mmHg 85%
    04:00 +6°C° 0.2 mm 1 mps 758 mmHg 88%
    05:00 +6°C° 0.2 mm 1 mps 758 mmHg 91%
    06:00 +6°C° 0.2 mm 1 mps 758 mmHg 94%
    07:00 +6°C° 0.5 mm 1 mps 758 mmHg 95%
    08:00 +6°C° 0.5 mm 2 mps 758 mmHg 96%
    09:00 +6°C° 0.5 mm 2 mps 758 mmHg 97%
    10:00 +7°C° 0.3 mm 2 mps 758 mmHg 97%
    11:00 +7°C° 0.3 mm 2 mps 759 mmHg 97%
    12:00 +8°C° 0.3 mm 2 mps 759 mmHg 97%
    13:00 +9°C° 0.1 mm 2 mps 759 mmHg 96%
    14:00 +10°C° 0.1 mm 2 mps 759 mmHg 95%
    15:00 +13°C° 0.1 mm 2 mps 758 mmHg 94%
    16:00 +13°C° 0 mm 2 mps 758 mmHg 94%
    17:00 +13°C° 0 mm 2 mps 758 mmHg 94%
    18:00 +14°C° 0 mm 1 mps 758 mmHg 94%
    19:00 +13°C° 0.1 mm 1 mps 759 mmHg 95%
    20:00 +12°C° 0.1 mm 1 mps 759 mmHg 96%
    21:00 +12°C° 0.1 mm 1 mps 759 mmHg 97%
    22:00 +11°C° 0 mm 1 mps 759 mmHg 98%
    23:00 +10°C° 0 mm 1 mps 759 mmHg 98%

    29 April, Monday

    Time Temperature Precipitation Wind Pressure Humidity
    00:00 +10°C° 0 mm 1 mps 759 mmHg 99%
    01:00 +10°C° 0.1 mm 1 mps 759 mmHg 99%
    02:00 +10°C° 0.1 mm 1 mps 759 mmHg 99%
    03:00 +10°C° 0.1 mm 1 mps 759 mmHg 99%
    04:00 +10°C° 0 mm 1 mps 759 mmHg 98%
    05:00 +10°C° 0 mm 1 mps 759 mmHg 98%
    06:00 +8°C° 0 mm 2 mps 759 mmHg 98%
    07:00 +9°C° 0.1 mm 2 mps 759 mmHg 97%
    08:00 +9°C° 0.1 mm 3 mps 759 mmHg 96%
    09:00 +9°C° 0.1 mm 3 mps 760 mmHg 95%
    10:00 +10°C° 0 mm 3 mps 760 mmHg 93%
    11:00 +10°C° 0 mm 4 mps 760 mmHg 90%
    12:00 +11°C° 0 mm 4 mps 760 mmHg 87%
    13:00 +12°C° 0 mm 4 mps 759 mmHg 79%
    14:00 +13°C° 0 mm 5 mps 759 mmHg 72%
    15:00 +14°C° 0 mm 5 mps 759 mmHg 64%
    16:00 +13°C° 0 mm 5 mps 759 mmHg 67%
    17:00 +12°C° 0 mm 5 mps 759 mmHg 71%
    18:00 +11°C° 0 mm 4 mps 759 mmHg 74%
    19:00 +10°C° 0 mm 4 mps 759 mmHg 80%
    20:00 +9°C° 0 mm 3 mps 759 mmHg 85%
    21:00 +7°C° 0 mm 3 mps 759 mmHg 91%
    22:00 +7°C° 0 mm 3 mps 759 mmHg 92%
    23:00 +7°C° 0 mm 3 mps 759 mmHg 92%

    30 April, Tuesday

    Time Temperature Precipitation Wind Pressure Humidity
    00:00 +5°C° 0 mm 3 mps 759 mmHg 93%
    01:00 +7°C° 0 mm 3 mps 759 mmHg 93%
    02:00 +6°C° 0 mm 4 mps 759 mmHg 92%
    03:00 +6°C° 0 mm 4 mps 759 mmHg 92%
    04:00 +6°C° 0 mm 4 mps 759 mmHg 91%
    05:00 +6°C° 0 mm 4 mps 759 mmHg 91%
    06:00 +6°C° 0 mm 4 mps 759 mmHg 90%
    07:00 +7°C° 0 mm 5 mps 759 mmHg 84%
    08:00 +9°C° 0 mm 6 mps 759 mmHg 79%
    09:00 +10°C° 0 mm 6 mps 759 mmHg 74%
    10:00 +11°C° 0 mm 6 mps 759 mmHg 70%
    11:00 +13°C° 0 mm 6 mps 759 mmHg 67%
    12:00 +14°C° 0 mm 7 mps 758 mmHg 63%
    13:00 +14°C° 0 mm 7 mps 758 mmHg 63%
    14:00 +14°C° 0 mm 6 mps 758 mmHg 62%
    15:00 +14°C° 0 mm 6 mps 757 mmHg 62%
    16:00 +14°C° 0 mm 5 mps 757 mmHg 65%
    17:00 +13°C° 0 mm 5 mps 757 mmHg 69%
    18:00 +13°C° 0 mm 4 mps 756 mmHg 73%
    19:00 +11°C° 0 mm 4 mps 757 mmHg 76%
    20:00 +10°C° 0 mm 3 mps 757 mmHg 79%
    21:00 +9°C° 0 mm 3 mps 757 mmHg 81%
    22:00 +8°C° 0 mm 3 mps 757 mmHg 83%
    23:00 +8°C° 0 mm 3 mps 756 mmHg 85%

    1 May, Wednesday

    Time Temperature Precipitation Wind Pressure Humidity
    00:00 +8°C° 0 mm 3 mps 756 mmHg 86%
    01:00 +8°C° 0 mm 3 mps 756 mmHg 90%
    02:00 +7°C° 0 mm 2 mps 756 mmHg 93%
    03:00 +7°C° 0 mm 2 mps 755 mmHg 96%
    04:00 +7°C° 0 mm 2 mps 755 mmHg 97%
    05:00 +7°C° 0 mm 2 mps 755 mmHg 97%
    06:00 +7°C° 0 mm 2 mps 755 mmHg 98%
    07:00 +8°C° 0 mm 2 mps 755 mmHg 93%
    08:00 +9°C° 0 mm 3 mps 755 mmHg 88%
    09:00 +11°C° 0 mm 3 mps 755 mmHg 83%
    10:00 +11°C° 0 mm 3 mps 755 mmHg 80%
    11:00 +12°C° 0 mm 3 mps 755 mmHg 78%
    12:00 +13°C° 0 mm 3 mps 755 mmHg 75%
    13:00 +13°C° 0.2 mm 4 mps 754 mmHg 74%
    14:00 +14°C° 0.2 mm 4 mps 754 mmHg 72%
    15:00 +14°C° 0.2 mm 4 mps 754 mmHg 70%
    16:00 +14°C° 0.1 mm 4 mps 754 mmHg 72%
    17:00 +13°C° 0.1 mm 3 mps 753 mmHg 74%
    18:00 +13°C° 0.1 mm 3 mps 753 mmHg 76%
    19:00 +11°C° 0 mm 3 mps 753 mmHg 82%
    20:00 +10°C° 0 mm 2 mps 753 mmHg 88%
    21:00 +9°C° 0 mm 1 mps 753 mmHg 94%
    22:00 +9°C° 0 mm 1 mps 753 mmHg 95%
    23:00 +8°C° 0 mm 1 mps 753 mmHg 96%
    Show more